Simultaneous Nadir Overpasses (SNOs) Predictions

Prediction of SNOs between GOES-17 and FY3D Satellite Orbit:

Table of predicted SNOs for the next 14.0 days since TLE Epoch: 12/5/2021
Index Date Time (GOES-17) GOES-17 Lat,Lon FY3D Lat,Lon Distance(km) Time Diff (sec)
1 12/05/2021 23:06:52 0.01,-137.19 -0.89,-141.12 448.17 80
2 12/06/2021 22:51:09 0.00,-137.18 0.10,-136.67 58.07 80
3 12/09/2021 10:52:28 -0.00,-137.17 0.11,-137.62 51.56 80
4 12/10/2021 10:36:46 -0.00,-137.16 -0.88,-133.17 454.43 80
5 12/11/2021 22:56:37 0.01,-137.15 -0.32,-138.61 166.45 80
6 12/12/2021 22:40:54 0.00,-137.14 0.67,-134.16 339.48 80
7 12/14/2021 11:00:36 -0.00,-137.12 0.53,-139.55 276.55 80
8 12/15/2021 10:44:53 0.00,-137.11 -0.46,-135.11 229.03 80
9 12/16/2021 23:04:44 -0.00,-137.09 -0.80,-140.53 392.79 80
10 12/17/2021 22:49:01 -0.01,-137.07 0.19,-136.08 112.35 80
